Location: Fornova de Taro
(44.7000°N, 10.1000°E)
Time: 09:14:05
(UTC+00:00)

Cosmos 292 Rocket - Pass Details

Date: 29 September 2022
Orbit: 673 x 692 km, 74.0° (Epoch: 04 December)

Event Time Altitude Azimuth Distance (km) Brightness Sun altitude
Exits shadow 02:14:00 21° 356° (N) 1,540 5.8 -31.5°
Drops below altitude 10° 02:15:48 10° 8° (N) 2,155 6.8 -31.2°
Sets 02:18:15 0° 16° (NNE) 3,075 7.8 -30.9°
